| time (UTC) | temp C | wind direction | speed KPH | gust KPH | rain 1hr cm | rain 24hr cm | rain mn cm | humidity % | barometer mb |
| 20260507220448 | 15 | 334 | 11.3 | 16.1 | 0.00 | 0.00 | 0.00 | 33 | 1007.7 |
| 20260507215944 | 15 | 187 | 4.8 | 6.4 | 0.00 | 0.00 | 0.00 | 32 | 1007.6 |
| 20260507215441 | 14 | 289 | 8.0 | 11.3 | 0.00 | 0.00 | 0.00 | 33 | 1007.8 |
| 20260507214939 | 15 | 182 | 6.4 | 9.7 | 0.00 | 0.00 | 0.00 | 33 | 1007.8 |
| 20260507214436 | 15 | 264 | 9.7 | 12.9 | 0.00 | 0.00 | 0.00 | 32 | 1007.8 |
| 20260507213932 | 16 | 184 | 8.0 | 14.5 | 0.00 | 0.00 | 0.00 | 32 | 1007.7 |
| 20260507213428 | 15 | 314 | 9.7 | 14.5 | 0.00 | 0.00 | 0.00 | 32 | 1007.7 |
| 20260507212925 | 15 | 221 | 4.8 | 6.4 | 0.00 | 0.00 | 0.00 | 33 | 1007.7 |
| 20260507212421 | 15 | 299 | 9.7 | 11.3 | 0.00 | 0.00 | 0.00 | 32 | 1007.9 |
| 20260507211918 | 15 | 181 | 8.0 | 9.7 | 0.00 | 0.00 | 0.00 | 33 | 1007.5 |
| 20260507211415 | 15 | 265 | 12.9 | 16.1 | 0.00 | 0.00 | 0.00 | 32 | 1007.8 |
| 20260507210911 | 15 | 283 | 9.7 | 12.9 | 0.00 | 0.00 | 0.00 | 33 | 1007.6 |
| 20260507210408 | 15 | 175 | 8.0 | 12.9 | 0.00 | 0.00 | 0.00 | 32 | 1007.5 |
| 20260507205905 | 15 | 226 | 12.9 | 22.5 | 0.00 | 0.00 | 0.00 | 33 | 1007.3 |
| 20260507205403 | 15 | 254 | 8.0 | 11.3 | 0.00 | 0.00 | 0.00 | 32 | 1007.5 |
| 20260507204858 | 15 | 292 | 12.9 | 16.1 | 0.00 | 0.00 | 0.00 | 32 | 1007.5 |
| 20260507204355 | 15 | 205 | 4.8 | 6.4 | 0.00 | 0.00 | 0.00 | 33 | 1007.5 |
| 20260507203853 | 15 | 272 | 11.3 | 14.5 | 0.00 | 0.00 | 0.00 | 32 | 1007.5 |
| 20260507203351 | 15 | 206 | 6.4 | 11.3 | 0.00 | 0.00 | 0.00 | 34 | 1007.4 |
| 20260507202846 | 15 | 181 | 11.3 | 12.9 | 0.00 | 0.00 | 0.00 | 33 | 1007.5 |
| 20260507202343 | 15 | 308 | 11.3 | 12.9 | 0.00 | 0.00 | 0.00 | 33 | 1007.5 |
| 20260507201839 | 15 | 204 | 3.2 | 3.2 | 0.00 | 0.00 | 0.00 | 35 | 1007.7 |
| 20260507201334 | 15 | 244 | 6.4 | 9.7 | 0.00 | 0.00 | 0.00 | 35 | 1007.6 |
| 20260507200831 | 15 | 246 | 8.0 | 12.9 | 0.00 | 0.00 | 0.00 | 34 | 1007.7 |
| 20260507200327 | 15 | 243 | 8.0 | 12.9 | 0.00 | 0.00 | 0.00 | 33 | 1007.8 |
| 20260507195823 | 15 | 254 | 9.7 | 12.9 | 0.00 | 0.00 | 0.00 | 33 | 1007.9 |
| 20260507195321 | 15 | 194 | 3.2 | 3.2 | 0.00 | 0.00 | 0.00 | 34 | 1007.8 |
| 20260507194818 | 15 | 341 | 6.4 | 9.7 | 0.00 | 0.00 | 0.00 | 33 | 1007.9 |
| 20260507194314 | 15 | 76 | 6.4 | 12.9 | 0.00 | 0.00 | 0.00 | 34 | 1008.0 |
| 20260507193810 | 15 | 306 | 11.3 | 14.5 | 0.00 | 0.00 | 0.00 | 35 | 1008.0 |
| 20260507193308 | 15 | 214 | 6.4 | 9.7 | 0.00 | 0.00 | 0.00 | 36 | 1008.0 |
| 20260507192803 | 15 | 287 | 6.4 | 9.7 | 0.00 | 0.00 | 0.00 | 34 | 1008.0 |
| 20260507192300 | 15 | 288 | 4.8 | 4.8 | 0.00 | 0.00 | 0.00 | 36 | 1007.8 |
| 20260507191756 | 14 | 178 | 3.2 | 4.8 | 0.00 | 0.00 | 0.00 | 37 | 1008.1 |
| 20260507191253 | 14 | 10 | 4.8 | 4.8 | 0.00 | 0.00 | 0.00 | 37 | 1008.2 |
| 20260507190750 | 14 | 173 | 6.4 | 9.7 | 0.00 | 0.00 | 0.00 | 37 | 1008.1 |
| 20260507190249 | 14 | 240 | 9.7 | 12.9 | 0.00 | 0.00 | 0.00 | 38 | 1008.0 |
| 20260507185747 | 15 | 202 | 8.0 | 11.3 | 0.00 | 0.00 | 0.00 | 37 | 1008.2 |
| 20260507185243 | 15 | 221 | 12.9 | 16.1 | 0.00 | 0.00 | 0.00 | 37 | 1008.2 |
| 20260507184741 | 14 | 195 | 9.7 | 12.9 | 0.00 | 0.00 | 0.00 | 38 | 1008.2 |
| 20260507184239 | 14 | 126 | 6.4 | 9.7 | 0.00 | 0.00 | 0.00 | 38 | 1008.3 |
| 20260507183735 | 14 | 243 | 11.3 | 17.7 | 0.00 | 0.00 | 0.00 | 37 | 1008.4 |
| 20260507183232 | 15 | 165 | 11.3 | 16.1 | 0.00 | 0.00 | 0.00 | 37 | 1008.5 |
| 20260507182730 | 15 | 177 | 11.3 | 16.1 | 0.00 | 0.00 | 0.00 | 37 | 1008.4 |
| 20260507182224 | 13 | 188 | 3.2 | 3.2 | 0.00 | 0.00 | 0.00 | 41 | 1008.5 |
| 20260507181721 | 13 | 270 | 4.8 | 6.4 | 0.00 | 0.00 | 0.00 | 40 | 1008.3 |
| 20260507181218 | 13 | 207 | 1.6 | 3.2 | 0.00 | 0.00 | 0.00 | 39 | 1008.5 |
| 20260507180714 | 13 | 269 | 11.3 | 12.9 | 0.00 | 0.00 | 0.00 | 39 | 1008.5 |
| 20260507180212 | 13 | 137 | 3.2 | 6.4 | 0.00 | 0.00 | 0.00 | 39 | 1008.8 |
| 20260507175707 | 14 | 189 | 6.4 | 9.7 | 0.00 | 0.00 | 0.00 | 39 | 1008.4 |
| 20260507175204 | 13 | 181 | 4.8 | 4.8 | 0.00 | 0.00 | 0.00 | 38 | 1008.7 |
| 20260507174702 | 14 | 242 | 9.7 | 12.9 | 0.00 | 0.00 | 0.00 | 37 | 1008.7 |
| 20260507174159 | 15 | 167 | 3.2 | 4.8 | 0.00 | 0.00 | 0.00 | 34 | 1008.7 |
| 20260507173657 | 15 | 234 | 12.9 | 14.5 | 0.00 | 0.00 | 0.00 | 35 | 1008.8 |
| 20260507173153 | 15 | 227 | 11.3 | 16.1 | 0.00 | 0.00 | 0.00 | 36 | 1008.9 |
| 20260507172650 | 15 | 269 | 16.1 | 22.5 | 0.00 | 0.00 | 0.00 | 36 | 1008.8 |
| 20260507172147 | 15 | 195 | 17.7 | 20.9 | 0.00 | 0.00 | 0.00 | 34 | 1009.1 |
| 20260507171647 | 15 | 182 | 6.4 | 11.3 | 0.00 | 0.00 | 0.00 | 36 | 1009.1 |
| 20260507171144 | 15 | 233 | 6.4 | 9.7 | 0.00 | 0.00 | 0.00 | 34 | 1009.3 |
| 20260507170641 | 15 | 197 | 4.8 | 4.8 | 0.00 | 0.00 | 0.00 | 38 | 1009.3 |
| 20260507170139 | 15 | 195 | 6.4 | 12.9 | 0.00 | 0.00 | 0.00 | 36 | 1009.2 |
| 20260507165634 | 15 | 178 | 1.6 | 1.6 | 0.00 | 0.00 | 0.00 | 35 | 1009.2 |
| 20260507165131 | 13 | 176 | 1.6 | 1.6 | 0.00 | 0.00 | 0.00 | 38 | 1009.3 |
| 20260507164626 | 13 | 196 | 4.8 | 6.4 | 0.00 | 0.00 | 0.00 | 39 | 1009.4 |
| 20260507164124 | 13 | 225 | 6.4 | 6.4 | 0.00 | 0.00 | 0.00 | 40 | 1009.5 |
| 20260507163621 | 13 | 305 | 9.7 | 11.3 | 0.00 | 0.00 | 0.00 | 39 | 1009.4 |
| 20260507163119 | 13 | 346 | 9.7 | 12.9 | 0.00 | 0.00 | 0.00 | 40 | 1009.6 |
| 20260507162614 | 13 | 243 | 11.3 | 14.5 | 0.00 | 0.00 | 0.00 | 37 | 1009.6 |
| 20260507162111 | 13 | 200 | 3.2 | 6.4 | 0.00 | 0.00 | 0.00 | 38 | 1009.6 |
| 20260507161607 | 13 | 112 | 3.2 | 3.2 | 0.00 | 0.00 | 0.00 | 40 | 1009.4 |
| 20260507161104 | 13 | 178 | 4.8 | 9.7 | 0.00 | 0.00 | 0.00 | 41 | 1009.6 |
| 20260507160600 | 13 | 174 | 4.8 | 9.7 | 0.00 | 0.00 | 0.00 | 40 | 1009.9 |
| 20260507160056 | 13 | 217 | 8.0 | 9.7 | 0.00 | 0.00 | 0.00 | 40 | 1009.7 |
| 20260507155551 | 13 | 278 | 6.4 | 6.4 | 0.00 | 0.00 | 0.00 | 41 | 1009.9 |
| 20260507155049 | 13 | 34 | 3.2 | 4.8 | 0.00 | 0.00 | 0.00 | 42 | 1009.7 |
| 20260507154546 | 13 | 261 | 12.9 | 14.5 | 0.00 | 0.00 | 0.00 | 39 | 1009.9 |
| 20260507154043 | 12 | 188 | 11.3 | 17.7 | 0.00 | 0.00 | 0.00 | 41 | 1010.0 |
| 20260507153540 | 13 | 217 | 6.4 | 9.7 | 0.00 | 0.00 | 0.00 | 41 | 1009.9 |
| 20260507153036 | 15 | 296 | 11.3 | 14.5 | 0.00 | 0.00 | 0.00 | 38 | 1009.9 |
| 20260507152532 | 14 | 192 | 1.6 | 1.6 | 0.00 | 0.00 | 0.00 | 38 | 1009.9 |
| 20260507152029 | 13 | 199 | 6.4 | 11.3 | 0.00 | 0.00 | 0.00 | 40 | 1010.1 |
| 20260507151525 | 12 | 163 | 3.2 | 4.8 | 0.00 | 0.00 | 0.00 | 42 | 1010.2 |
| 20260507151022 | 12 | 162 | 1.6 | 1.6 | 0.00 | 0.00 | 0.00 | 42 | 1010.3 |
| 20260507150519 | 11 | 176 | 1.6 | 1.6 | 0.00 | 0.00 | 0.00 | 44 | 1010.5 |
| 20260507150015 | 11 | 319 | 12.9 | 16.1 | 0.00 | 0.00 | 0.00 | 43 | 1010.3 |
| 20260507145510 | 12 | 289 | 11.3 | 12.9 | 0.00 | 0.00 | 0.00 | 42 | 1010.4 |
| 20260507145008 | 12 | 238 | 11.3 | 16.1 | 0.00 | 0.00 | 0.00 | 43 | 1010.4 |
| 20260507144505 | 12 | 253 | 4.8 | 6.4 | 0.00 | 0.00 | 0.00 | 45 | 1010.7 |
| 20260507144002 | 12 | 275 | 9.7 | 11.3 | 0.00 | 0.00 | 0.00 | 42 | 1010.8 |
| 20260507143459 | 12 | 256 | 12.9 | 17.7 | 0.00 | 0.00 | 0.00 | 42 | 1010.7 |
| 20260507142956 | 12 | 179 | 3.2 | 4.8 | 0.00 | 0.00 | 0.00 | 44 | 1010.8 |
| 20260507142451 | 12 | 197 | 8.0 | 11.3 | 0.00 | 0.00 | 0.00 | 44 | 1010.9 |
| 20260507141949 | 12 | 257 | 8.0 | 9.7 | 0.00 | 0.00 | 0.00 | 44 | 1011.1 |
| 20260507141444 | 12 | 197 | 4.8 | 6.4 | 0.00 | 0.00 | 0.00 | 48 | 1011.2 |
| 20260507140942 | 12 | 180 | 6.4 | 11.3 | 0.00 | 0.00 | 0.00 | 47 | 1011.0 |
| 20260507140438 | 12 | 208 | 11.3 | 14.5 | 0.00 | 0.00 | 0.00 | 49 | 1011.1 |
| 20260507135936 | 11 | 188 | 4.8 | 6.4 | 0.00 | 0.00 | 0.00 | 50 | 1011.2 |
| 20260507135433 | 11 | 190 | 8.0 | 11.3 | 0.00 | 0.00 | 0.00 | 50 | 1011.1 |
| 20260507134930 | 11 | 202 | 3.2 | 4.8 | 0.00 | 0.00 | 0.00 | 49 | 1011.2 |
| 20260507134426 | 11 | 197 | 1.6 | 3.2 | 0.00 | 0.00 | 0.00 | 50 | 1011.2 |
| 20260507133922 | 11 | 203 | 9.7 | 11.3 | 0.00 | 0.00 | 0.00 | 51 | 1011.2 |
| 20260507133419 | 11 | 167 | 1.6 | 3.2 | 0.00 | 0.00 | 0.00 | 51 | 1011.3 |
| 20260507132917 | 11 | 192 | 4.8 | 4.8 | 0.00 | 0.00 | 0.00 | 51 | 1011.4 |
| 20260507132413 | 11 | 161 | 6.4 | 6.4 | 0.00 | 0.00 | 0.00 | 53 | 1011.4 |
| 20260507131910 | 11 | 182 | 1.6 | 1.6 | 0.00 | 0.00 | 0.00 | 53 | 1011.5 |
| 20260507131407 | 10 | 165 | 3.2 | 3.2 | 0.00 | 0.00 | 0.00 | 55 | 1011.4 |
| 20260507130904 | 10 | 180 | 6.4 | 6.4 | 0.00 | 0.00 | 0.00 | 58 | 1011.3 |
| 20260507130401 | 10 | 177 | 8.0 | 12.9 | 0.00 | 0.00 | 0.00 | 58 | 1011.3 |
| 20260507125900 | 10 | 206 | 4.8 | 6.4 | 0.00 | 0.00 | 0.00 | 59 | 1011.4 |
| 20260507125356 | 10 | 192 | 4.8 | 4.8 | 0.00 | 0.00 | 0.00 | 60 | 1011.3 |
| 20260507124854 | 10 | 198 | 4.8 | 4.8 | 0.00 | 0.00 | 0.00 | 61 | 1011.2 |
| 20260507124350 | 10 | 182 | 3.2 | 4.8 | 0.00 | 0.00 | 0.00 | 64 | 1011.3 |
| 20260507123849 | 9 | 168 | 3.2 | 4.8 | 0.00 | 0.00 | 0.00 | 65 | 1011.5 |
| 20260507123345 | 9 | 179 | 3.2 | 4.8 | 0.00 | 0.00 | 0.00 | 67 | 1011.4 |
| 20260507122842 | 9 | 150 | 3.2 | 4.8 | 0.00 | 0.00 | 0.00 | 68 | 1011.5 |
| 20260507122337 | 8 | 181 | 3.2 | 4.8 | 0.00 | 0.00 | 0.00 | 70 | 1011.5 |
| 20260507121834 | 8 | 155 | 3.2 | 3.2 | 0.00 | 0.00 | 0.00 | 72 | 1011.4 |
| 20260507121329 | 7 | 168 | 1.6 | 3.2 | 0.00 | 0.00 | 0.00 | 74 | 1011.3 |
| 20260507120826 | 7 | 170 | 3.2 | 3.2 | 0.00 | 0.00 | 0.00 | 77 | 1011.4 |
| 20260507120322 | 7 | 149 | 3.2 | 4.8 | 0.00 | 0.00 | 0.00 | 79 | 1011.2 |
| 20260507115819 | 6 | 160 | 3.2 | 3.2 | 0.00 | 0.00 | 0.00 | 82 | 1011.4 |
| 20260507115314 | 6 | 160 | 3.2 | 3.2 | 0.00 | 0.00 | 0.00 | 84 | 1011.5 |
| 20260507114810 | 5 | 161 | 1.6 | 3.2 | 0.00 | 0.00 | 0.00 | 85 | 1011.4 |
| 20260507114308 | 5 | 160 | 3.2 | 3.2 | 0.00 | 0.00 | 0.00 | 87 | 1011.4 |
| 20260507113805 | 5 | 167 | 3.2 | 3.2 | 0.00 | 0.00 | 0.00 | 87 | 1011.2 |
| 20260507113302 | 5 | 162 | 3.2 | 3.2 | 0.00 | 0.00 | 0.00 | 88 | 1011.2 |
| 20260507112800 | 5 | 165 | 1.6 | 1.6 | 0.00 | 0.00 | 0.00 | 90 | 1011.1 |
| 20260507112256 | 4 | 157 | 3.2 | 3.2 | 0.00 | 0.00 | 0.00 | 90 | 1011.1 |
| 20260507111754 | 3 | 162 | 3.2 | 3.2 | 0.00 | 0.00 | 0.00 | 91 | 1011.2 |
| 20260507111250 | 3 | 164 | 3.2 | 3.2 | 0.00 | 0.00 | 0.00 | 90 | 1011.1 |
| 20260507110747 | 3 | 162 | 0.0 | 0.0 | 0.00 | 0.00 | 0.00 | 91 | 1010.8 |
| 20260507110243 | 3 | 166 | 0.0 | 0.0 | 0.00 | 0.00 | 0.00 | 91 | 1011.1 |
| 20260507105740 | 3 | 166 | 0.0 | 0.0 | 0.00 | 0.00 | 0.00 | 91 | 1011.1 |
| 20260507105236 | 3 | 166 | 0.0 | 0.0 | 0.00 | 0.00 | 0.00 | 91 | 1011.0 |
| 20260507104734 | 3 | 166 | 0.0 | 0.0 | 0.00 | 0.00 | 0.00 | 92 | 1010.8 |
| 20260507104230 | 2 | 166 | 0.0 | 0.0 | 0.00 | 0.00 | 0.00 | 91 | 1010.7 |
| 20260507103726 | 2 | 165 | 0.0 | 0.0 | 0.00 | 0.00 | 0.00 | 90 | 1010.9 |
| 20260507103223 | 3 | 166 | 0.0 | 0.0 | 0.00 | 0.00 | 0.00 | 89 | 1010.7 |
| 20260507102719 | 3 | 163 | 0.0 | 0.0 | 0.00 | 0.00 | 0.00 | 89 | 1010.6 |
| 20260507102216 | 3 | 165 | 0.0 | 0.0 | 0.00 | 0.00 | 0.00 | 88 | 1010.6 |
| 20260507101712 | 2 | 165 | 0.0 | 0.0 | 0.00 | 0.00 | 0.00 | 89 | 1010.8 |
| 20260507101207 | 2 | 165 | 0.0 | 0.0 | 0.00 | 0.00 | 0.00 | 87 | 1010.8 |
| 20260507100705 | 3 | 165 | 0.0 | 0.0 | 0.00 | 0.00 | 0.00 | 85 | 1010.7 |
| 20260507100203 | 3 | 165 | 0.0 | 0.0 | 0.00 | 0.00 | 0.00 | 85 | 1010.8 |
| 20260507095701 | 3 | 165 | 0.0 | 0.0 | 0.00 | 0.00 | 0.00 | 86 | 1010.8 |
| 20260507095157 | 3 | 165 | 0.0 | 0.0 | 0.00 | 0.00 | 0.00 | 86 | 1010.6 |
| 20260507094653 | 3 | 165 | 0.0 | 0.0 | 0.00 | 0.00 | 0.00 | 88 | 1010.7 |
| 20260507094150 | 3 | 164 | 0.0 | 0.0 | 0.00 | 0.00 | 0.00 | 89 | 1010.4 |
| 20260507093648 | 3 | 160 | 0.0 | 0.0 | 0.00 | 0.00 | 0.00 | 89 | 1010.7 |
| 20260507093146 | 3 | 178 | 0.0 | 0.0 | 0.00 | 0.00 | 0.00 | 88 | 1010.6 |
| 20260507092643 | 3 | 178 | 0.0 | 0.0 | 0.00 | 0.00 | 0.00 | 87 | 1010.7 |
| 20260507092139 | 3 | 178 | 0.0 | 0.0 | 0.00 | 0.00 | 0.00 | 87 | 1010.8 |
| 20260507091636 | 3 | 178 | 0.0 | 0.0 | 0.00 | 0.00 | 0.00 | 87 | 1011.0 |
| 20260507091132 | 3 | 178 | 0.0 | 0.0 | 0.00 | 0.00 | 0.00 | 87 | 1011.0 |
| 20260507090628 | 3 | 178 | 0.0 | 0.0 | 0.00 | 0.00 | 0.00 | 86 | 1010.9 |
| 20260507090125 | 3 | 178 | 0.0 | 0.0 | 0.00 | 0.00 | 0.00 | 85 | 1011.0 |
| 20260507085622 | 3 | 178 | 0.0 | 0.0 | 0.00 | 0.00 | 0.00 | 84 | 1010.9 |
| 20260507085119 | 3 | 178 | 0.0 | 0.0 | 0.00 | 0.00 | 0.00 | 83 | 1010.8 |
| 20260507084615 | 4 | 178 | 0.0 | 0.0 | 0.00 | 0.00 | 0.00 | 82 | 1010.8 |
| 20260507084112 | 4 | 178 | 0.0 | 0.0 | 0.00 | 0.00 | 0.00 | 80 | 1010.8 |
| 20260507083609 | 5 | 178 | 0.0 | 0.0 | 0.00 | 0.00 | 0.00 | 80 | 1010.6 |
| 20260507083106 | 5 | 178 | 0.0 | 0.0 | 0.00 | 0.00 | 0.00 | 79 | 1010.8 |
| 20260507082602 | 5 | 178 | 0.0 | 0.0 | 0.00 | 0.00 | 0.00 | 79 | 1010.9 |
| 20260507082058 | 5 | 178 | 0.0 | 0.0 | 0.00 | 0.00 | 0.00 | 79 | 1010.7 |
| 20260507081554 | 4 | 178 | 0.0 | 0.0 | 0.00 | 0.00 | 0.00 | 80 | 1010.9 |
| 20260507081052 | 4 | 178 | 0.0 | 0.0 | 0.00 | 0.00 | 0.00 | 81 | 1010.7 |
| 20260507080548 | 5 | 178 | 0.0 | 0.0 | 0.00 | 0.00 | 0.00 | 82 | 1010.8 |
| 20260507080044 | 5 | 178 | 0.0 | 0.0 | 0.00 | 0.00 | 0.00 | 83 | 1010.7 |
| 20260507075539 | 4 | 178 | 0.0 | 0.0 | 0.00 | 0.00 | 0.00 | 83 | 1010.6 |
| 20260507075036 | 5 | 178 | 0.0 | 0.0 | 0.00 | 0.00 | 0.00 | 81 | 1010.8 |
| 20260507074533 | 5 | 178 | 0.0 | 0.0 | 0.00 | 0.00 | 0.00 | 79 | 1010.9 |
| 20260507074031 | 5 | 178 | 0.0 | 0.0 | 0.00 | 0.00 | 0.00 | 77 | 1010.9 |
| 20260507073527 | 5 | 178 | 0.0 | 0.0 | 0.00 | 0.00 | 0.00 | 76 | 1010.9 |
| 20260507073024 | 6 | 178 | 0.0 | 0.0 | 0.00 | 0.00 | 0.00 | 74 | 1011.0 |
| 20260507072521 | 6 | 178 | 0.0 | 0.0 | 0.00 | 0.00 | 0.00 | 74 | 1010.8 |
| 20260507072018 | 6 | 177 | 0.0 | 0.0 | 0.00 | 0.00 | 0.00 | 73 | 1010.8 |
| 20260507071516 | 6 | 175 | 0.0 | 0.0 | 0.00 | 0.00 | 0.00 | 72 | 1010.9 |
| 20260507071012 | 6 | 176 | 0.0 | 0.0 | 0.00 | 0.00 | 0.00 | 72 | 1011.0 |
| 20260507070509 | 6 | 169 | 0.0 | 0.0 | 0.00 | 0.00 | 0.00 | 73 | 1010.9 |
| 20260507070010 | 6 | 176 | 0.0 | 0.0 | 0.00 | 0.00 | 0.00 | 72 | 1011.0 |
| 20260507065502 | 6 | 174 | 0.0 | 0.0 | 0.00 | 0.00 | 0.00 | 71 | 1010.9 |
| 20260507065000 | 6 | 176 | 0.0 | 0.0 | 0.00 | 0.00 | 0.00 | 73 | 1010.9 |
| 20260507064458 | 6 | 175 | 0.0 | 0.0 | 0.00 | 0.00 | 0.00 | 76 | 1011.0 |
| 20260507063956 | 6 | 175 | 0.0 | 0.0 | 0.00 | 0.00 | 0.00 | 74 | 1011.0 |
| 20260507063452 | 6 | 170 | 0.0 | 0.0 | 0.00 | 0.00 | 0.00 | 71 | 1010.9 |
| 20260507062949 | 7 | 170 | 0.0 | 0.0 | 0.00 | 0.00 | 0.00 | 71 | 1010.9 |
| 20260507062446 | 7 | 170 | 0.0 | 0.0 | 0.00 | 0.00 | 0.00 | 70 | 1010.9 |
| 20260507061944 | 7 | 170 | 0.0 | 0.0 | 0.00 | 0.00 | 0.00 | 69 | 1010.9 |
| 20260507061442 | 7 | 170 | 0.0 | 0.0 | 0.00 | 0.00 | 0.00 | 68 | 1011.1 |
| 20260507060940 | 7 | 172 | 0.0 | 0.0 | 0.00 | 0.00 | 0.00 | 67 | 1011.1 |
| 20260507060436 | 7 | 163 | 0.0 | 1.6 | 0.00 | 0.00 | 0.00 | 67 | 1011.0 |
| 20260507055933 | 7 | 164 | 1.6 | 1.6 | 0.00 | 0.00 | 0.00 | 66 | 1011.2 |
| 20260507055428 | 7 | 153 | 1.6 | 1.6 | 0.00 | 0.00 | 0.00 | 67 | 1011.3 |
| 20260507054926 | 7 | 177 | 0.0 | 0.0 | 0.00 | 0.00 | 0.00 | 66 | 1011.2 |
| 20260507054421 | 7 | 177 | 0.0 | 1.6 | 0.00 | 0.00 | 0.00 | 66 | 1011.5 |
| 20260507053919 | 7 | 163 | 1.6 | 1.6 | 0.00 | 0.00 | 0.00 | 66 | 1011.5 |
| 20260507053416 | 8 | 182 | 1.6 | 1.6 | 0.00 | 0.00 | 0.00 | 66 | 1011.7 |
| 20260507052915 | 8 | 175 | 1.6 | 1.6 | 0.00 | 0.00 | 0.00 | 64 | 1011.7 |
| 20260507052412 | 8 | 194 | 3.2 | 3.2 | 0.00 | 0.00 | 0.00 | 63 | 1011.9 |
| 20260507051909 | 8 | 176 | 0.0 | 0.0 | 0.00 | 0.00 | 0.00 | 63 | 1011.7 |
| 20260507051407 | 8 | 194 | 3.2 | 4.8 | 0.00 | 0.00 | 0.00 | 63 | 1011.7 |
| 20260507050903 | 8 | 181 | 1.6 | 1.6 | 0.00 | 0.00 | 0.00 | 66 | 1011.6 |
| 20260507050400 | 8 | 164 | 1.6 | 1.6 | 0.00 | 0.00 | 0.00 | 65 | 1011.6 |
| 20260507045857 | 8 | 179 | 0.0 | 0.0 | 0.00 | 0.00 | 0.00 | 63 | 1011.6 |
| 20260507045353 | 8 | 177 | 0.0 | 0.0 | 0.00 | 0.00 | 0.00 | 62 | 1011.5 |
| 20260507044851 | 8 | 177 | 0.0 | 1.6 | 0.00 | 0.00 | 0.00 | 62 | 1011.7 |
| 20260507044347 | 8 | 174 | 0.0 | 0.0 | 0.00 | 0.00 | 0.00 | 64 | 1011.5 |
| 20260507043843 | 8 | 172 | 1.6 | 1.6 | 0.00 | 0.00 | 0.00 | 63 | 1011.5 |
| 20260507043340 | 8 | 177 | 1.6 | 1.6 | 0.00 | 0.00 | 0.00 | 63 | 1011.5 |
| 20260507042836 | 8 | 178 | 1.6 | 1.6 | 0.00 | 0.00 | 0.00 | 63 | 1011.6 |
| 20260507042332 | 8 | 183 | 1.6 | 1.6 | 0.00 | 0.00 | 0.00 | 62 | 1011.5 |
| 20260507041829 | 8 | 172 | 1.6 | 1.6 | 0.00 | 0.00 | 0.00 | 63 | 1011.5 |
| 20260507041325 | 8 | 180 | 1.6 | 1.6 | 0.00 | 0.00 | 0.00 | 64 | 1011.7 |
| 20260507040822 | 8 | 182 | 1.6 | 3.2 | 0.00 | 0.00 | 0.00 | 65 | 1011.6 |
| 20260507040319 | 8 | 184 | 1.6 | 1.6 | 0.00 | 0.00 | 0.00 | 65 | 1011.5 |
| 20260507035814 | 8 | 178 | 1.6 | 1.6 | 0.00 | 1.83 | 1.83 | 65 | 1011.5 |
| 20260507035310 | 8 | 171 | 1.6 | 1.6 | 0.00 | 1.83 | 1.83 | 65 | 1011.3 |
| 20260507034808 | 8 | 131 | 3.2 | 4.8 | 0.00 | 1.83 | 1.83 | 64 | 1011.2 |
| 20260507034305 | 8 | 174 | 0.0 | 0.0 | 0.00 | 1.83 | 1.83 | 64 | 1011.6 |
| 20260507033803 | 8 | 175 | 0.0 | 0.0 | 0.00 | 1.83 | 1.83 | 64 | 1011.5 |
| 20260507033301 | 8 | 178 | 0.0 | 0.0 | 0.00 | 1.83 | 1.83 | 63 | 1011.5 |
| 20260507032757 | 8 | 141 | 0.0 | 3.2 | 0.00 | 1.83 | 1.83 | 64 | 1011.1 |
| 20260507032253 | 8 | 188 | 3.2 | 3.2 | 0.00 | 1.83 | 1.83 | 63 | 1011.3 |
| 20260507031750 | 8 | 178 | 3.2 | 3.2 | 0.00 | 1.83 | 1.83 | 63 | 1011.3 |
| 20260507031247 | 8 | 332 | 6.4 | 6.4 | 0.00 | 1.83 | 1.83 | 64 | 1010.8 |
| 20260507030744 | 8 | 96 | 3.2 | 4.8 | 0.00 | 1.83 | 1.83 | 63 | 1011.1 |
| 20260507030241 | 8 | 189 | 3.2 | 3.2 | 0.00 | 1.83 | 1.83 | 63 | 1011.2 |
| 20260507025738 | 8 | 176 | 3.2 | 4.8 | 0.00 | 1.83 | 1.83 | 63 | 1010.9 |
| 20260507025235 | 8 | 178 | 1.6 | 1.6 | 0.00 | 1.83 | 1.83 | 63 | 1011.0 |
| 20260507024733 | 9 | 184 | 1.6 | 1.6 | 0.00 | 1.83 | 1.83 | 62 | 1011.1 |
| 20260507024230 | 9 | 186 | 3.2 | 3.2 | 0.00 | 1.83 | 1.83 | 62 | 1010.8 |
| 20260507023725 | 9 | 175 | 1.6 | 1.6 | 0.00 | 1.83 | 1.83 | 62 | 1010.8 |
| 20260507023223 | 9 | 187 | 1.6 | 3.2 | 0.00 | 1.83 | 1.83 | 60 | 1011.2 |
| 20260507022720 | 9 | 221 | 3.2 | 3.2 | 0.00 | 1.83 | 1.83 | 60 | 1010.8 |
| 20260507022216 | 9 | 183 | 3.2 | 4.8 | 0.00 | 1.83 | 1.83 | 60 | 1011.0 |
| 20260507021712 | 9 | 191 | 1.6 | 1.6 | 0.00 | 1.83 | 1.83 | 60 | 1010.7 |
| 20260507021208 | 9 | 177 | 3.2 | 4.8 | 0.00 | 1.83 | 1.83 | 59 | 1010.9 |
| 20260507020707 | 9 | 201 | 3.2 | 4.8 | 0.00 | 1.83 | 1.83 | 59 | 1010.8 |
| 20260507020202 | 9 | 211 | 6.4 | 6.4 | 0.00 | 1.83 | 1.83 | 59 | 1010.6 |
| 20260507015700 | 10 | 165 | 3.2 | 3.2 | 0.00 | 1.83 | 1.83 | 59 | 1010.4 |
| 20260507015158 | 10 | 97 | 3.2 | 3.2 | 0.00 | 1.83 | 1.83 | 59 | 1010.5 |
| 20260507014654 | 10 | 226 | 4.8 | 4.8 | 0.00 | 1.83 | 1.83 | 59 | 1010.3 |
| 20260507014150 | 10 | 338 | 6.4 | 6.4 | 0.00 | 1.83 | 1.83 | 59 | 1010.3 |
| 20260507013647 | 10 | 146 | 4.8 | 6.4 | 0.00 | 1.83 | 1.83 | 59 | 1010.2 |
| 20260507013144 | 10 | 101 | 3.2 | 4.8 | 0.00 | 1.83 | 1.83 | 61 | 1010.2 |
| 20260507012642 | 10 | 155 | 4.8 | 6.4 | 0.00 | 1.83 | 1.83 | 60 | 1010.3 |
| 20260507012137 | 10 | 13 | 4.8 | 4.8 | 0.00 | 1.83 | 1.83 | 61 | 1010.2 |
| 20260507011635 | 10 | 121 | 4.8 | 4.8 | 0.00 | 1.83 | 1.83 | 61 | 1010.3 |
| 20260507011131 | 10 | 180 | 3.2 | 3.2 | 0.00 | 1.83 | 1.83 | 61 | 1010.3 |
| 20260507010626 | 10 | 198 | 4.8 | 4.8 | 0.00 | 1.83 | 1.83 | 60 | 1010.3 |
| 20260507010122 | 10 | 224 | 3.2 | 4.8 | 0.00 | 1.83 | 1.83 | 60 | 1010.4 |
| 20260507005619 | 10 | 64 | 4.8 | 6.4 | 0.00 | 1.83 | 1.83 | 60 | 1010.5 |
| 20260507005116 | 10 | 105 | 4.8 | 6.4 | 0.00 | 1.83 | 1.83 | 61 | 1010.5 |
| 20260507004613 | 10 | 131 | 3.2 | 4.8 | 0.00 | 1.83 | 1.83 | 62 | 1010.7 |
| 20260507004110 | 10 | 188 | 3.2 | 4.8 | 0.00 | 1.83 | 1.83 | 62 | 1010.8 |
| 20260507003606 | 10 | 220 | 1.6 | 3.2 | 0.00 | 1.83 | 1.83 | 63 | 1010.7 |
| 20260507003101 | 10 | 162 | 4.8 | 4.8 | 0.00 | 1.83 | 1.83 | 62 | 1010.6 |
| 20260507002558 | 10 | 202 | 3.2 | 3.2 | 0.00 | 1.83 | 1.83 | 62 | 1010.7 |
| 20260507002053 | 10 | 284 | 6.4 | 9.7 | 0.00 | 1.83 | 1.83 | 61 | 1010.9 |
| 20260507001551 | 11 | 181 | 3.2 | 3.2 | 0.00 | 1.83 | 1.83 | 62 | 1010.7 |
| 20260507001048 | 11 | 320 | 9.7 | 11.3 | 0.00 | 1.83 | 1.83 | 62 | 1010.5 |
| 20260507000544 | 11 | 340 | 9.7 | 12.9 | 0.00 | 1.83 | 1.83 | 65 | 1010.3 |
| 20260507000039 | 11 | 6 | 4.8 | 6.4 | 0.00 | 1.83 | 1.83 | 67 | 1010.3 |
| 20260506235537 | 11 | 218 | 4.8 | 4.8 | 0.00 | 1.83 | 1.83 | 66 | 1010.4 |
| 20260506235033 | 11 | 193 | 3.2 | 3.2 | 0.00 | 1.83 | 1.83 | 66 | 1010.2 |
| 20260506234531 | 11 | 196 | 3.2 | 4.8 | 0.00 | 1.83 | 1.83 | 66 | 1010.1 |
| 20260506234027 | 11 | 207 | 3.2 | 4.8 | 0.00 | 1.83 | 1.83 | 68 | 1010.1 |
| 20260506233524 | 11 | 141 | 3.2 | 3.2 | 0.00 | 1.83 | 1.83 | 69 | 1010.0 |
| 20260506233021 | 11 | 190 | 4.8 | 4.8 | 0.00 | 1.83 | 1.83 | 69 | 1010.0 |
| 20260506232517 | 11 | 168 | 1.6 | 1.6 | 0.00 | 1.83 | 1.83 | 70 | 1009.9 |
| 20260506232013 | 11 | 177 | 3.2 | 3.2 | 0.00 | 1.83 | 1.83 | 68 | 1009.7 |
| 20260506231511 | 11 | 182 | 1.6 | 1.6 | 0.00 | 1.83 | 1.83 | 67 | 1009.9 |
| 20260506231009 | 11 | 225 | 4.8 | 4.8 | 0.00 | 1.83 | 1.83 | 68 | 1009.7 |
| 20260506230504 | 11 | 200 | 3.2 | 3.2 | 0.00 | 1.83 | 1.83 | 67 | 1009.4 |
| 20260506230002 | 11 | 192 | 1.6 | 3.2 | 0.00 | 1.83 | 1.83 | 68 | 1009.4 |
| 20260506225459 | 11 | 173 | 1.6 | 1.6 | 0.00 | 1.83 | 1.83 | 69 | 1009.6 |
| 20260506224955 | 11 | 203 | 3.2 | 3.2 | 0.00 | 1.83 | 1.83 | 68 | 1009.6 |
| 20260506224452 | 11 | 176 | 1.6 | 3.2 | 0.00 | 1.83 | 1.83 | 70 | 1009.5 |
| 20260506223948 | 11 | 174 | 3.2 | 3.2 | 0.00 | 1.83 | 1.83 | 69 | 1009.5 |
| 20260506223444 | 11 | 189 | 3.2 | 3.2 | 0.00 | 1.83 | 1.83 | 69 | 1009.3 |
| 20260506222942 | 11 | 324 | 8.0 | 9.7 | 0.00 | 1.83 | 1.83 | 69 | 1009.5 |
| 20260506222438 | 11 | 273 | 6.4 | 9.7 | 0.00 | 1.83 | 1.83 | 68 | 1009.4 |
| 20260506221935 | 11 | 199 | 3.2 | 3.2 | 0.00 | 1.83 | 1.83 | 69 | 1009.4 |
| 20260506221432 | 11 | 175 | 0.0 | 0.0 | 0.00 | 1.83 | 1.83 | 68 | 1009.3 |
| 20260506220930 | 12 | 278 | 8.0 | 9.7 | 0.00 | 1.83 | 1.83 | 68 | 1009.3 |